Other Public Products
Issued by NWS Grand Forks, ND

Home | Current Version | Previous Version | Graphics & Text | Print | Product List | Glossary On
Versions: 1 2 3 4 5 6 7 8 9 10 11 12 13 14 15 16 17 18 19 20 21 22 23 24 25 26 27 28 29 30 31 32 33 34 35 36 37 38 39 40 41 42 43 44 45 46 47 48 49 50
000
FPUS83 KFGF 191010
OPUFGF
PRAIRIE TO PINES WEATHER ROUNDUP
NATIONAL WEATHER SERVICE EASTERN NORTH DAKOTA/GRAND FORKS ND
500 AM CDT THU OCT 19 2017

 **SATELLITE DATA USED TO AUGMENT SKY COVER AT AUTOMATED STATIONS**
 *****  WEATHER ACROSS EASTERN NORTH DAKOTA  *****

CITY           SKY/WX    TMP DP  RH WIND       PRES   REMARKS
GRAND FORKS    FAIR      35  26  69 SW5       29.90S
GRAND FORKS AF FAIR      37  25  61 SW5       29.89F
GRAND CITY NWS NOT AVBL
BUXTON         NOT AVBL
DEVILS LAKE    FAIR      34  28  79 SE6       29.86F
FARGO          FAIR      39  29  67 S7        29.93F
WAHPETON ARPT  NOT AVBL
$$

 *****  WEATHER ACROSS CENTRAL AND WESTERN NORTH DAKOTA  *****

CITY           SKY/WX    TMP DP  RH WIND       PRES   REMARKS
JAMESTOWN      FAIR      36  27  69 S3        29.87F
BISMARCK       FAIR      38  28  67 E7        29.83F
MINOT          FAIR      40  28  62 SE6       29.76F
MINOT AFB      FAIR      32  27  80 SE7       29.74F
GARRISON         N/A     38  28  67 SE6       29.80F
WILLISTON      FAIR      42  28  57 S5        29.73F
DICKINSON      FAIR      41  26  55 S8        29.77F
HETTINGER      FAIR      32  24  72 NW3       29.84F
$$

 *****  OTHER OBSERVATIONS NORTHEAST NORTH DAKOTA  *****

CITY           SKY/WX    TMP DP  RH WIND       PRES   REMARKS
WALHALLA       FAIR     N/A N/A N/A SW3       29.86S
LANGDON        FAIR      30  23  74 S10       29.86F WCI  21
CAVALIER       FAIR      39  23  52 W3        29.86F
GRAFTON        FAIR      36  28  75 SW8       29.90S
CANDO          FAIR      30  25  80 SE5       29.86F
FORT TOTTEN    NOT AVBL
ROLLA          FLURRIES  34  21  60 S8        29.82F
RUGBY            N/A     34  28  80 SE7       29.81F
 ***** THE ABOVE OBSERVATIONS ARE NON NWS ARE NOT QUALITY
        CONTROLLED AND MAY MIS-REPORT RAIN FOR SNOW...
$$

 *****  OTHER OBSERVATIONS SOUTHEAST NORTH DAKOTA *****

CITY           SKY/WX    TMP DP  RH WIND       PRES   REMARKS
COOPERSTOWN    FAIR      32  27  80 S7        29.90F
VALLEY CITY    FAIR      34  28  80 CALM      29.91F
OAKES          NOT AVBL
GWINNER        SUNNY     37  30  75 CALM      29.92F
SHEYENNE NWR     N/A     34  29  83 CALM      29.95
BUFFALO        NOT AVBL
WYNDMERE       NOT AVBL
 ***** THE ABOVE OBSERVATIONS ARE NON NWS ARE NOT QUALITY
       CONTROLLED AND MAY MIS-REPORT RAIN FOR SNOW...
$$

  *****  WEATHER ACROSS NORTHERN MINNESOTA  *****

CITY           SKY/WX    TMP DP  RH WIND       PRES   REMARKS
FLAG ISLAND    FAIR      45  19  36 W14       29.82R
WARROAD        FAIR      39  25  56 SW10      29.86R
ROSEAU         FAIR      39  27  60 SW9       29.87R
HALLOCK        FAIR      36  19  51 CALM      29.88S
THF RVR FALLS  FAIR      36  23  59 S7        29.92S
HALSTAD        NOT AVBL
FOSSTON        FAIR      34  23  64 S8        29.94R
BAUDETTE       FAIR      43  20  39 W10       29.86R
WASKISH        FAIR      46  34  61 W12       29.89R
CROOKSTON      FAIR      34  25  69 S8        29.92S
$$
  *****  WEATHER ACROSS CENTRAL AND WEST MINNESOTA  *****

CITY           SKY/WX    TMP DP  RH WIND       PRES   REMARKS
BEMIDJI        FAIR      40  24  52 SW6       29.93S
PARK RAPIDS    FAIR      36  27  69 W6        29.95S
WADENA         FAIR      36  28  75 CALM      29.97S
DETROIT LAKES  FAIR      41  30  65 S3        29.96S
MOORHEAD       FAIR      36  28  75 SE6       29.95S
FERGUS FALLS   FAIR      39  30  70 SE6       29.98S
ELBOW LAKE     FAIR      34  32  93 CALM      29.98S
MORRIS MN      FAIR      36  32  87 SE7       29.97F
STAPLES        FAIR      37  27  65 CALM      29.97S
WHEATON        FAIR      37  30  75 SE7       29.98F
$$
  *****  WEATHER ELSEWHERE ACROSS MINNESOTA  *****

CITY           SKY/WX    TMP DP  RH WIND       PRES   REMARKS
DULUTH         FAIR      43  25  49 W13       29.93R
INTRNTL FALLS  FAIR      41  20  43 SW7       29.85R
ELY            FAIR      45  19  36 W9        29.86R
CLOQUET        FAIR      45  21  39 W7        29.95R
BRAINERD       FAIR      39  28  64 SW9       29.98S
HIBBING        FAIR      41  23  48 W5        29.91R
ALEXANDRIA     FAIR      40  32  73 SW6       30.00
SAINT CLOUD    FAIR      36  33  89 S5        30.01S
MINNEAPOLIS    FAIR      47  32  56 S5        30.04R
$$

  *****  WEATHER ACROSS SOUTH DAKOTA  *****

CITY           SKY/WX    TMP DP  RH WIND       PRES   REMARKS
SIOUX FALLS    FAIR      40  35  83 CALM      30.04S
BROOKINGS      FAIR      38  31  76 S3        30.02S
WATERTOWN      FAIR      39  32  76 SE7       29.98F
HURON          FAIR      41  31  67 S10       29.98F
SISSETON         N/A     49  29  46 S7        29.93F
ABERDEEN       FAIR      34  30  85 S7        29.93F
MITCHELL       FAIR      49  29  46 S9        30.01S
PIERRE         FAIR      44  34  67 SE10      29.90F
MOBRIDGE       FAIR      50  35  56 SE14      29.84F
RAPID CITY     FAIR      48  28  46 S10       29.89F
$$

  *****  SOME WEATHER IN NEARBY STATES *****

CITY           SKY/WX    TMP DP  RH WIND       PRES   REMARKS
GLASGOW MT     FAIR      45  36  70 SE12      29.67F
GREAT FALLS MT FAIR      60  20  21 SW20      29.68F
CHEYENNE WY    FAIR      39  21  48 W12       30.11F
SCOTTSBLUFF NE FAIR      43  31  62 E12       30.02F
OMAHA NE       FAIR      44  40  85 NW6       30.05S
DES MOINES IA  FAIR      54  41  61 E10       30.08R
DAVENPORT IA   FAIR      46  44  93 NW5       30.10R
CHICAGO IL     FAIR      54  46  74 W7        30.06R
EAU CLAIRE WI  FAIR      41  31  67 CALM      30.03R
LA CROSSE WI   FAIR      45  36  70 CALM      30.06R
$$

  *****  SOME NATIONAL WEATHER *****

CITY           SKY/WX    TMP DP  RH WIND       PRES   REMARKS
LA GUARDIA NY  FAIR      58  46  64 SW7       30.25S
RALEIGH NC     FAIR      42  42 100 CALM      30.30R
ATLANTA GA     FAIR      51  42  71 NE10      30.27S
NEW ORLEANS LA FAIR      62  61  96 CALM      30.13S
OKLAHOMA CITY  MOCLDY    53  45  74 S9        30.08S
ALBUQUERQUE NM MOCLDY    52  27  38 N13       30.13F
SALT LAKE CITY FAIR      45  29  53 SE8       30.02F
LOS ANGELES CA FAIR      65  60  84 CALM      29.90S
BOISE ID       FAIR      51  29  42 SE13      29.85S
SEATTLE WA     RAIN      52  50  93 S14       29.63S FOG
$$

*** WEATHER ACROSS MANITOBA...SASKATCHEWAN AND ONTARIO ***
                ***ONTARIO***

CITY           SKY/WX    TMP DP  RH WIND       PRES   REMARKS
GERALDTON      MOCLDY    46  23  39 W13G20    29.55R
THUNDER BAY    PTCLDY    48  18  29 SW10      29.73R
SIOUX LOOKOUT  PTCLDY    45  27  49 W16G25    29.67R
TORONTO        PTCLDY    55  46  71 SW8       30.01F
BIG TROUT LK   LGT RAIN  36  36 100 W25G32    29.32R FOG
PICKLE LAKE    NOT AVBL
DRYDEN         CLEAR     45  21  39 W14G28    29.72R
KENORA         CLEAR     43  16  33 W12       29.78R
$$
                *** MANITOBA***

CITY           SKY/WX    TMP DP  RH WIND       PRES   REMARKS
BRANDON        CLEAR     27  18  69 N2        29.80F
DAUPHIN        CLEAR     34  18  51 VRB2      29.76F
ISLAND LAKE    LGT RAIN  36  32  87 NW17G26   29.56R
PILOT MOUND      N/A     30  19  64 S8          N/A  WCI  23
THE PAS        PTCLDY    28  25  86 VRB2      29.69F
THOMPSON       CLOUDY    32  28  86 NW8       29.64R WCI  25
WINNIPEG       CLEAR     41  19  42 SW10      29.83R
LYNN LAKE      CLOUDY    28  27  93 NE6       29.69R WCI  22
CHURCHILL      CLOUDY    36  32  87 NE31G39   29.59R
GILLAM         FLURRIES  34  32  93 N20       29.51R WCI  22
$$
                ***SASKATCHEWAN***

CITY           SKY/WX    TMP DP  RH WIND       PRES   REMARKS
ESTEVAN        CLEAR     37  25  60 SE9       29.69F
KINDERSLEY     MOCLDY    55  39  54 SW21G26   29.39F
LLOYDMINSTER   CLEAR     34  23  64 SE9       29.34F
PRINCE ALBERT  CLOUDY    34  23  64 E15       29.57F WCI  24
REGINA         PTCLDY    36  19  51 SE14      29.61F
YORKTON        MOCLDY    36  19  51 SE8       29.69F


USA.gov is the U.S. government's official web portal to all federal, state and local government web resources and services.